• In Belarus
  • List of Countries
  • For 7 days
  • Water Temperature
  • Weather Map
  • Weather Widgets
  • user-avatar
    Login

    Hourly Weather Nevers

    Today, 31 May, Sunday

    Time Temperature Precipitation Wind Pressure Humidity
    00:00 +13°C° 0 mm 2 mps 746 mmHg 77%
    01:00 +12°C° 0 mm 2 mps 746 mmHg 77%
    02:00 +12°C° 0 mm 2 mps 746 mmHg 76%
    03:00 +10°C° 0 mm 2 mps 746 mmHg 76%
    04:00 +12°C° 0 mm 2 mps 746 mmHg 75%
    05:00 +13°C° 0 mm 2 mps 746 mmHg 74%
    06:00 +14°C° 0 mm 2 mps 746 mmHg 73%
    07:00 +16°C° 0 mm 2 mps 746 mmHg 67%
    08:00 +18°C° 0 mm 3 mps 746 mmHg 61%
    09:00 +20°C° 0 mm 3 mps 746 mmHg 54%
    10:00 +21°C° 0 mm 3 mps 746 mmHg 53%
    11:00 +22°C° 0 mm 4 mps 746 mmHg 52%
    12:00 +22°C° 0 mm 4 mps 746 mmHg 50%
    13:00 +22°C° 0 mm 4 mps 745 mmHg 52%
    14:00 +22°C° 0 mm 4 mps 745 mmHg 54%
    15:00 +22°C° 0 mm 5 mps 745 mmHg 55%
    16:00 +22°C° 0 mm 4 mps 745 mmHg 60%
    17:00 +21°C° 0 mm 4 mps 745 mmHg 64%
    18:00 +20°C° 0 mm 4 mps 745 mmHg 69%
    19:00 +18°C° 0 mm 4 mps 745 mmHg 74%
    20:00 +16°C° 0 mm 3 mps 745 mmHg 80%
    21:00 +14°C° 0 mm 3 mps 745 mmHg 86%
    22:00 +13°C° 0 mm 3 mps 745 mmHg 88%
    23:00 +13°C° 0 mm 2 mps 745 mmHg 90%

    Tomorrow, 1 June, Monday

    Time Temperature Precipitation Wind Pressure Humidity
    00:00 +12°C° 0 mm 2 mps 745 mmHg 92%
    01:00 +12°C° 0 mm 2 mps 745 mmHg 92%
    02:00 +11°C° 0 mm 1 mps 745 mmHg 91%
    03:00 +11°C° 0 mm 1 mps 745 mmHg 91%
    04:00 +12°C° 0 mm 1 mps 745 mmHg 88%
    05:00 +13°C° 0 mm 1 mps 745 mmHg 85%
    06:00 +14°C° 0 mm 2 mps 745 mmHg 83%
    07:00 +16°C° 0.1 mm 2 mps 745 mmHg 78%
    08:00 +18°C° 0.1 mm 2 mps 745 mmHg 73%
    09:00 +20°C° 0.1 mm 2 mps 746 mmHg 69%
    10:00 +23°C° 0.1 mm 2 mps 745 mmHg 65%
    11:00 +24°C° 0.1 mm 2 mps 745 mmHg 62%
    12:00 +26°C° 0.1 mm 2 mps 745 mmHg 58%
    13:00 +25°C° 1.1 mm 2 mps 745 mmHg 62%
    14:00 +25°C° 1.1 mm 3 mps 745 mmHg 65%
    15:00 +25°C° 1.1 mm 3 mps 745 mmHg 69%
    16:00 +24°C° 0.5 mm 3 mps 745 mmHg 74%
    17:00 +22°C° 0.5 mm 3 mps 745 mmHg 80%
    18:00 +21°C° 0.5 mm 3 mps 745 mmHg 85%
    19:00 +20°C° 0.3 mm 2 mps 745 mmHg 87%
    20:00 +18°C° 0.3 mm 2 mps 745 mmHg 90%
    21:00 +17°C° 0.3 mm 2 mps 746 mmHg 92%
    22:00 +16°C° 0.3 mm 1 mps 746 mmHg 92%
    23:00 +16°C° 0.3 mm 1 mps 746 mmHg 92%

    Day after tomorrow, 2 June, Tuesday

    Time Temperature Precipitation Wind Pressure Humidity
    00:00 +15°C° 0.3 mm 1 mps 745 mmHg 92%
    01:00 +14°C° 0 mm 1 mps 745 mmHg 92%
    02:00 +14°C° 0 mm 1 mps 745 mmHg 92%
    03:00 +13°C° 0 mm 0 mps 745 mmHg 92%
    04:00 +13°C° 0 mm 0 mps 745 mmHg 91%
    05:00 +14°C° 0 mm 0 mps 746 mmHg 91%
    06:00 +16°C° 0 mm 1 mps 746 mmHg 90%
    07:00 +19°C° 0 mm 1 mps 746 mmHg 82%
    08:00 +19°C° 0 mm 0 mps 746 mmHg 74%
    09:00 +22°C° 0 mm 0 mps 746 mmHg 66%
    10:00 +25°C° 0 mm 1 mps 745 mmHg 62%
    11:00 +26°C° 0 mm 1 mps 745 mmHg 58%
    12:00 +27°C° 0 mm 2 mps 745 mmHg 54%
    13:00 +27°C° 0 mm 2 mps 745 mmHg 55%
    14:00 +27°C° 0 mm 3 mps 744 mmHg 56%
    15:00 +27°C° 0 mm 3 mps 744 mmHg 56%
    16:00 +26°C° 0 mm 3 mps 743 mmHg 62%
    17:00 +25°C° 0 mm 2 mps 743 mmHg 67%
    18:00 +24°C° 0 mm 2 mps 743 mmHg 72%
    19:00 +21°C° 0 mm 2 mps 743 mmHg 78%
    20:00 +20°C° 0 mm 1 mps 743 mmHg 85%
    21:00 +18°C° 0 mm 1 mps 743 mmHg 91%
    22:00 +16°C° 0 mm 1 mps 742 mmHg 92%
    23:00 +16°C° 0 mm 1 mps 742 mmHg 93%

    3 June, Wednesday

    Time Temperature Precipitation Wind Pressure Humidity
    00:00 +15°C° 0 mm 1 mps 742 mmHg 94%
    01:00 +14°C° 0 mm 0 mps 741 mmHg 94%
    02:00 +13°C° 0 mm 0 mps 741 mmHg 94%
    03:00 +13°C° 0 mm 0 mps 740 mmHg 95%
    04:00 +14°C° 0 mm 0 mps 740 mmHg 93%
    05:00 +15°C° 0 mm 0 mps 740 mmHg 92%
    06:00 +16°C° 0 mm 0 mps 740 mmHg 91%
    07:00 +18°C° 0.1 mm 0 mps 739 mmHg 84%
    08:00 +20°C° 0.1 mm 0 mps 739 mmHg 77%
    09:00 +22°C° 0.1 mm 0 mps 739 mmHg 70%
    10:00 +25°C° 0.3 mm 1 mps 738 mmHg 66%
    11:00 +25°C° 0.3 mm 1 mps 738 mmHg 63%
    12:00 +26°C° 0.3 mm 1 mps 737 mmHg 59%
    13:00 +26°C° 0.5 mm 1 mps 737 mmHg 61%
    14:00 +26°C° 0.5 mm 1 mps 737 mmHg 63%
    15:00 +25°C° 0.5 mm 1 mps 736 mmHg 65%
    16:00 +24°C° 1.2 mm 1 mps 736 mmHg 74%
    17:00 +22°C° 1.2 mm 1 mps 736 mmHg 83%
    18:00 +21°C° 1.2 mm 1 mps 735 mmHg 92%
    19:00 +20°C° 0.7 mm 1 mps 736 mmHg 92%
    20:00 +19°C° 0.7 mm 1 mps 736 mmHg 92%
    21:00 +18°C° 0.7 mm 1 mps 736 mmHg 92%
    22:00 +16°C° 0.3 mm 1 mps 736 mmHg 93%
    23:00 +16°C° 0.3 mm 1 mps 736 mmHg 94%

    4 June, Thursday

    Time Temperature Precipitation Wind Pressure Humidity
    00:00 +15°C° 0.3 mm 1 mps 736 mmHg 95%
    01:00 +15°C° 0 mm 1 mps 736 mmHg 96%
    02:00 +14°C° 0 mm 1 mps 736 mmHg 97%
    03:00 +14°C° 0 mm 1 mps 736 mmHg 97%
    04:00 +15°C° 0 mm 2 mps 736 mmHg 97%
    05:00 +15°C° 0 mm 2 mps 736 mmHg 97%
    06:00 +16°C° 0 mm 2 mps 736 mmHg 97%
    07:00 +17°C° 0 mm 2 mps 736 mmHg 93%
    08:00 +18°C° 0 mm 2 mps 736 mmHg 89%
    09:00 +19°C° 0 mm 2 mps 736 mmHg 85%
    10:00 +19°C° 0.6 mm 2 mps 736 mmHg 87%
    11:00 +19°C° 0.6 mm 2 mps 736 mmHg 89%
    12:00 +19°C° 0.6 mm 2 mps 737 mmHg 91%
    13:00 +19°C° 0.9 mm 2 mps 736 mmHg 91%
    14:00 +19°C° 0.9 mm 2 mps 736 mmHg 92%
    15:00 +18°C° 0.9 mm 2 mps 736 mmHg 92%
    16:00 +18°C° 0.5 mm 2 mps 736 mmHg 93%
    17:00 +18°C° 0.5 mm 2 mps 737 mmHg 93%
    18:00 +19°C° 0.5 mm 1 mps 737 mmHg 93%
    19:00 +18°C° 0.2 mm 1 mps 737 mmHg 94%
    20:00 +16°C° 0.2 mm 1 mps 738 mmHg 94%
    21:00 +14°C° 0.2 mm 0 mps 738 mmHg 94%
    22:00 +13°C° 0 mm 0 mps 738 mmHg 95%
    23:00 +13°C° 0 mm 0 mps 738 mmHg 95%

    5 June, Friday

    Time Temperature Precipitation Wind Pressure Humidity
    00:00 +13°C° 0 mm 0 mps 738 mmHg 95%
    01:00 +12°C° 0 mm 0 mps 738 mmHg 96%
    02:00 +13°C° 0 mm 1 mps 738 mmHg 97%
    03:00 +12°C° 0 mm 1 mps 738 mmHg 97%
    04:00 +13°C° 0 mm 1 mps 738 mmHg 97%
    05:00 +14°C° 0 mm 1 mps 738 mmHg 97%
    06:00 +14°C° 0 mm 1 mps 738 mmHg 98%
    07:00 +15°C° 0 mm 2 mps 738 mmHg 95%
    08:00 +16°C° 0 mm 2 mps 738 mmHg 93%
    09:00 +17°C° 0 mm 2 mps 738 mmHg 91%
    10:00 +18°C° 0.3 mm 2 mps 737 mmHg 84%
    11:00 +19°C° 0.3 mm 3 mps 737 mmHg 77%
    12:00 +20°C° 0.3 mm 3 mps 737 mmHg 70%
    13:00 +21°C° 0.1 mm 3 mps 737 mmHg 67%
    14:00 +22°C° 0.1 mm 4 mps 736 mmHg 64%
    15:00 +22°C° 0.1 mm 4 mps 736 mmHg 61%
    16:00 +21°C° 0.2 mm 4 mps 736 mmHg 69%
    17:00 +20°C° 0.2 mm 3 mps 736 mmHg 76%
    18:00 +18°C° 0.2 mm 3 mps 736 mmHg 83%
    19:00 +17°C° 0 mm 3 mps 737 mmHg 86%
    20:00 +15°C° 0 mm 2 mps 737 mmHg 88%
    21:00 +14°C° 0 mm 2 mps 737 mmHg 91%
    22:00 +13°C° 0 mm 2 mps 738 mmHg 92%
    23:00 +12°C° 0 mm 2 mps 738 mmHg 93%
    Show more